When you browse on this site, cookies collect data to enhance your experience and personalize the content and advertising you see.
Visit our Privacy Policy to learn more. By continuing to use the site, you agree to this use of cookies and data.
  • In Lithuania
  • List of Countries
  • For 7 days
  • Water Temperature
  • Weather Map
  • Weather Widgets
  • user-avatar
    Login

    Hourly Weather Botvinino

    Today, 22 February, Saturday

    Time Temperature Precipitation Wind Pressure Humidity
    00:00 -2°C° 0 mm 4 mps 742 mmHg 90%
    01:00 -2°C° 0 mm 4 mps 742 mmHg 91%
    02:00 -2°C° 0 mm 4 mps 742 mmHg 91%
    03:00 -2°C° 0 mm 4 mps 742 mmHg 91%
    04:00 -2°C° 0 mm 4 mps 742 mmHg 91%
    05:00 -2°C° 0 mm 4 mps 742 mmHg 91%
    06:00 -2°C° 0 mm 4 mps 742 mmHg 89%
    07:00 -2°C° 0 mm 4 mps 742 mmHg 88%
    08:00 -2°C° 0 mm 5 mps 742 mmHg 85%
    09:00 -1°C° 0 mm 5 mps 741 mmHg 83%
    10:00 -1°C° 0 mm 5 mps 741 mmHg 81%
    11:00 -2°C° 0 mm 6 mps 741 mmHg 79%
    12:00 -2°C° 0 mm 6 mps 740 mmHg 78%
    13:00 -1°C° 0 mm 6 mps 740 mmHg 77%
    14:00 -1°C° 0 mm 6 mps 739 mmHg 77%
    15:00 -2°C° 0 mm 6 mps 738 mmHg 77%
    16:00 -2°C° 0 mm 6 mps 737 mmHg 77%
    17:00 -2°C° 0 mm 7 mps 736 mmHg 77%
    18:00 -2°C° 0 mm 7 mps 735 mmHg 79%
    19:00 -2°C° 0 mm 8 mps 734 mmHg 80%
    20:00 -2°C° 0 mm 8 mps 733 mmHg 81%
    21:00 -3°C° 0.7 mm 9 mps 731 mmHg 86%
    22:00 -4°C° 0.7 mm 9 mps 730 mmHg 91%
    23:00 -4°C° 0.7 mm 9 mps 729 mmHg 96%

    Tomorrow, 23 February, Sunday

    Time Temperature Precipitation Wind Pressure Humidity
    00:00 -4°C° 0.9 mm 9 mps 728 mmHg 95%
    01:00 -4°C° 0.9 mm 9 mps 727 mmHg 95%
    02:00 -3°C° 0.9 mm 9 mps 726 mmHg 95%
    03:00 -2°C° 0.7 mm 8 mps 725 mmHg 95%
    04:00 -2°C° 0.7 mm 7 mps 724 mmHg 94%
    05:00 -1°C° 0.7 mm 6 mps 723 mmHg 94%
    06:00 0°C° 0.6 mm 5 mps 723 mmHg 93%
    07:00 0°C° 0.6 mm 5 mps 723 mmHg 91%
    08:00 0°C° 0.6 mm 4 mps 723 mmHg 89%
    09:00 0°C° 0.1 mm 4 mps 723 mmHg 85%
    10:00 0°C° 0.1 mm 5 mps 723 mmHg 81%
    11:00 0°C° 0.1 mm 5 mps 723 mmHg 77%
    12:00 0°C° 0.1 mm 5 mps 723 mmHg 76%
    13:00 +1°C° 0.1 mm 5 mps 723 mmHg 74%
    14:00 +1°C° 0.1 mm 5 mps 723 mmHg 73%
    15:00 0°C° 0 mm 5 mps 723 mmHg 76%
    16:00 -1°C° 0 mm 4 mps 722 mmHg 80%
    17:00 -1°C° 0 mm 4 mps 722 mmHg 83%
    18:00 -1°C° 0.1 mm 4 mps 722 mmHg 87%
    19:00 -2°C° 0.1 mm 5 mps 722 mmHg 91%
    20:00 -3°C° 0.1 mm 6 mps 721 mmHg 96%
    21:00 -2°C° 0.1 mm 5 mps 721 mmHg 95%
    22:00 -2°C° 0.1 mm 5 mps 721 mmHg 95%
    23:00 -2°C° 0.1 mm 5 mps 720 mmHg 94%

    Day after tomorrow, 24 February, Monday

    Time Temperature Precipitation Wind Pressure Humidity
    00:00 -2°C° 0.1 mm 5 mps 721 mmHg 94%
    01:00 -2°C° 0.1 mm 5 mps 721 mmHg 94%
    02:00 -2°C° 0.1 mm 4 mps 721 mmHg 93%
    03:00 -2°C° 0.1 mm 4 mps 721 mmHg 94%
    04:00 -2°C° 0.1 mm 4 mps 720 mmHg 94%
    05:00 -2°C° 0.1 mm 4 mps 720 mmHg 94%
    06:00 -2°C° 0.1 mm 4 mps 721 mmHg 93%
    07:00 -1°C° 0.1 mm 3 mps 721 mmHg 92%
    08:00 -1°C° 0.1 mm 3 mps 722 mmHg 90%
    09:00 -2°C° 0.1 mm 4 mps 722 mmHg 86%
    10:00 -1°C° 0.1 mm 4 mps 722 mmHg 83%
    11:00 -1°C° 0.1 mm 4 mps 722 mmHg 79%
    12:00 -1°C° 0.1 mm 5 mps 723 mmHg 78%
    13:00 -1°C° 0.1 mm 5 mps 723 mmHg 77%
    14:00 -1°C° 0.1 mm 5 mps 724 mmHg 76%
    15:00 -1°C° 0 mm 5 mps 724 mmHg 76%
    16:00 -2°C° 0 mm 5 mps 725 mmHg 77%
    17:00 -3°C° 0 mm 4 mps 725 mmHg 77%
    18:00 -3°C° 0 mm 4 mps 726 mmHg 78%
    19:00 -4°C° 0 mm 4 mps 727 mmHg 78%
    20:00 -4°C° 0 mm 3 mps 728 mmHg 79%
    21:00 -5°C° 0 mm 4 mps 728 mmHg 78%
    22:00 -5°C° 0 mm 4 mps 728 mmHg 77%
    23:00 -5°C° 0 mm 4 mps 729 mmHg 76%

    25 February, Tuesday

    Time Temperature Precipitation Wind Pressure Humidity
    00:00 -5°C° 0 mm 4 mps 729 mmHg 79%
    01:00 -5°C° 0 mm 4 mps 729 mmHg 81%
    02:00 -5°C° 0 mm 4 mps 729 mmHg 84%
    03:00 -5°C° 0 mm 4 mps 729 mmHg 85%
    04:00 -5°C° 0 mm 4 mps 729 mmHg 85%
    05:00 -5°C° 0 mm 4 mps 729 mmHg 86%
    06:00 -5°C° 0 mm 3 mps 730 mmHg 85%
    07:00 -5°C° 0 mm 3 mps 730 mmHg 84%
    08:00 -5°C° 0 mm 3 mps 730 mmHg 83%
    09:00 -4°C° 0 mm 3 mps 730 mmHg 78%
    10:00 -2°C° 0 mm 3 mps 730 mmHg 72%
    11:00 -1°C° 0 mm 3 mps 730 mmHg 66%
    12:00 0°C° 0 mm 3 mps 730 mmHg 64%
    13:00 0°C° 0 mm 3 mps 730 mmHg 61%
    14:00 0°C° 0 mm 3 mps 729 mmHg 59%
    15:00 0°C° 0 mm 3 mps 729 mmHg 63%
    16:00 -1°C° 0 mm 2 mps 728 mmHg 68%
    17:00 -2°C° 0 mm 2 mps 728 mmHg 73%
    18:00 -2°C° 0 mm 2 mps 727 mmHg 72%
    19:00 -2°C° 0 mm 3 mps 727 mmHg 72%
    20:00 -2°C° 0 mm 3 mps 726 mmHg 71%
    21:00 -3°C° 0.2 mm 4 mps 726 mmHg 78%
    22:00 -3°C° 0.2 mm 4 mps 725 mmHg 85%
    23:00 -4°C° 0.2 mm 5 mps 724 mmHg 93%

    26 February, Wednesday

    Time Temperature Precipitation Wind Pressure Humidity
    00:00 -3°C° 0.4 mm 4 mps 724 mmHg 94%
    01:00 -2°C° 0.4 mm 4 mps 723 mmHg 95%
    02:00 -2°C° 0.4 mm 4 mps 722 mmHg 96%
    03:00 0°C° 0.1 mm 3 mps 722 mmHg 96%
    04:00 0°C° 0.1 mm 3 mps 722 mmHg 96%
    05:00 0°C° 0.1 mm 3 mps 721 mmHg 96%
    06:00 0°C° 0.5 mm 3 mps 721 mmHg 96%
    07:00 0°C° 0.5 mm 3 mps 721 mmHg 97%
    08:00 0°C° 0.5 mm 3 mps 721 mmHg 98%
    09:00 0°C° 0.6 mm 3 mps 721 mmHg 95%
    10:00 0°C° 0.6 mm 3 mps 721 mmHg 93%
    11:00 -1°C° 0.6 mm 4 mps 721 mmHg 90%
    12:00 0°C° 0 mm 4 mps 722 mmHg 85%
    13:00 0°C° 0 mm 4 mps 722 mmHg 80%
    14:00 +1°C° 0 mm 4 mps 723 mmHg 76%
    15:00 0°C° 0 mm 4 mps 723 mmHg 77%
    16:00 +1°C° 0 mm 3 mps 724 mmHg 79%
    17:00 0°C° 0 mm 3 mps 724 mmHg 80%
    18:00 +1°C° 0 mm 2 mps 724 mmHg 82%
    19:00 -1°C° 0 mm 2 mps 725 mmHg 84%
    20:00 -2°C° 0 mm 2 mps 725 mmHg 86%
    21:00 -2°C° 0 mm 2 mps 725 mmHg 88%
    22:00 -2°C° 0 mm 2 mps 726 mmHg 89%
    23:00 -2°C° 0 mm 2 mps 726 mmHg 90%

    27 February, Thursday

    Time Temperature Precipitation Wind Pressure Humidity
    00:00 -2°C° 0 mm 2 mps 726 mmHg 91%
    01:00 -2°C° 0 mm 2 mps 726 mmHg 93%
    02:00 -3°C° 0 mm 2 mps 726 mmHg 94%
    03:00 -3°C° 0 mm 2 mps 727 mmHg 93%
    04:00 -3°C° 0 mm 2 mps 727 mmHg 92%
    05:00 -3°C° 0 mm 2 mps 727 mmHg 91%
    06:00 -2°C° 0 mm 2 mps 727 mmHg 90%
    07:00 -2°C° 0 mm 2 mps 727 mmHg 88%
    08:00 -2°C° 0 mm 3 mps 727 mmHg 87%
    09:00 -1°C° 0 mm 3 mps 727 mmHg 83%
    10:00 0°C° 0 mm 3 mps 727 mmHg 80%
    11:00 +1°C° 0 mm 3 mps 728 mmHg 77%
    12:00 +2°C° 0 mm 3 mps 728 mmHg 75%
    13:00 +2°C° 0 mm 3 mps 728 mmHg 74%
    14:00 +2°C° 0 mm 3 mps 728 mmHg 73%
    15:00 +1°C° 0 mm 3 mps 729 mmHg 76%
    16:00 0°C° 0 mm 3 mps 729 mmHg 79%
    17:00 -1°C° 0 mm 3 mps 729 mmHg 81%
    18:00 -1°C° 0 mm 3 mps 730 mmHg 81%
    19:00 -1°C° 0 mm 3 mps 730 mmHg 80%
    20:00 -2°C° 0 mm 3 mps 731 mmHg 79%
    21:00 -2°C° 0 mm 3 mps 731 mmHg 81%
    22:00 -2°C° 0 mm 3 mps 731 mmHg 83%
    23:00 -4°C° 0 mm 3 mps 732 mmHg 85%
    Show more